Location: De Har
(53.3413°N, 6.6858°E)
Time: 20:44:16
(UTC+00:00)

NPP - Pass Details

Date: 22 April 2026
Orbit: 825 x 829 km, 98.8° (Epoch: 21 May)

Event Time Altitude Azimuth Distance (km) Brightness Sun altitude
Rises 02:40:12 0° 12° (NNE) 3,379 7.8 -13.2°
Reaches altitude 10° 02:42:41 10° 5° (N) 2,441 6.8 -12.9°
Maximum altitude 02:47:39 39° 298° (WNW) 1,222 4.4 -12.4°
Enters shadow 02:51:28 16° 237° (WSW) 2,031 5.0 -11.9°
